Regional Weather Roundup
Issued by NWS Sterling, VA

Home | Current Version | Previous Version | Graphics & Text | Print | Product List | Glossary On
Versions: 1 2 3 4 5 6 7 8 9 10 11 12 13 14 15 16 17 18 19 20 21 22 23 24 25 26 27
000
ASUS41 KLWX 210210
RWRLWX

REGIONAL WEATHER ROUNDUP
NATIONAL WEATHER SERVICE BALTIMORE MD/WASHINGTON DC
900 PM EST MON FEB 20 2017

Note: "FAIR" indicates few or no clouds below 12,000 feet
with no significant weather and/or obstructions to visibility.
 TC=TEMPERATURE CELSIUS

 * =Non NWS site. Station does not report precipitation (e.g. rain,
    snow, etc.), thunder, or fog.

DCZ001-MDZ009-015-VAZ040>042-051-053>054-210300-
WASHINGTON METRO

CITY           SKY/WX    TMP DP  RH WIND       PRES   REMARKS
WASHINGTON NAT PTCLDY    53  33  46 CALM      30.28R
DULLES         PTCLDY    52  30  43 E7        30.26R
ANDREWS AFB    CLEAR     47  29  50 E3        30.26R
FT BELVOIR     CLEAR     51  32  47 CALM      30.26R
QUANTICO       PTCLDY    53  33  46 CALM      30.28R
COLLEGE PARK*  CLEAR     50  27  40 CALM      30.27R
LEESBURG*      CLEAR     54  34  47 MISG      30.28R
MANASSAS*      CLEAR     47  34  60 S3        30.27R
GAITHERSBURG*  CLEAR     50  27  40 E3        30.31R

$$

MDZ006>007-011-014-210300-
BALTIMORE METRO

CITY           SKY/WX    TMP DP  RH WIND       PRES   REMARKS
BWI AIRPORT    PTCLDY    51  27  39 NE9       30.27R
MD SCIENCE CTR   N/A     54  25  32 MISG      30.28R
MARTIN STATE   CLEAR     45  34  65 CALM      30.30R
ANNAPOLIS      CLEAR     52  31  44 N6        30.28R
FORT MEADE*    PTCLDY    43  28  56 CALM      30.30R

$$

MDZ012-015-019>023-210300-
MARYLAND EASTERN SHORE

CITY           SKY/WX    TMP DP  RH WIND       PRES   REMARKS
OCEAN CITY     CLEAR     44  36  73 E5        30.27S
SALISBURY      CLEAR     40  34  79 CALM      30.27R
BAY BRIDGE AP* CLEAR     48  32  53 NE3       30.28R
EASTON*        CLEAR     46  30  53 NE6       30.31R

$$

MDZ017>025-210300-
SOUTHERN MARYLAND

CITY           SKY/WX    TMP DP  RH WIND       PRES   REMARKS
PATUXENT RIVER CLEAR     42  36  79 CALM      30.26R
ST INIGOES     CLEAR     45  34  65 CALM      30.26R
LEONARDTOWN*   CLEAR     46  32  57 NE3       30.28R

$$

MDZ003>005-210300-
NORTH CENTRAL MARYLAND

CITY           SKY/WX    TMP DP  RH WIND       PRES   REMARKS
FREDERICK*     NOT AVBL
HAGERSTOWN APT CLEAR     49  31  49 E7        30.25R
WESTMINSTER*   CLOUDY    48  27  43 NE7       30.27R

$$

MDZ501>502-210300-
WESTERN MARYLAND

CITY           SKY/WX    TMP DP  RH WIND       PRES   REMARKS
OAKLAND*       CLOUDY    46  30  53 SE10      30.23R
CUMBERLAND*    CLOUDY    55  28  35 CALM      30.28R

$$

VAZ025>031-210300-
SHENANDOAH VALLEY

CITY           SKY/WX    TMP DP  RH WIND       PRES   REMARKS
WINCHESTER*    CLOUDY    45  32  61 CALM      30.25R
FRONT ROYAL*   CLOUDY    50  34  53 NE3       30.23S
LURAY*         CLOUDY    52  39  62 NE6       30.23R
NEW MARKET*    CLOUDY    52  34  50 N7        30.22R
STAUNTON*      CLOUDY    45  34  65 CALM      30.24R
WAYNESBORO*    CLOUDY    54  31  40 E8        30.22R

$$

WVZ021-048>050-054>055-210300-
EASTERN WEST VIRGINIA PANHANDLE

CITY           SKY/WX    TMP DP  RH WIND       PRES   REMARKS
MARTINSBURG    CLEAR     47  29  49 CALM      30.25R
PETERSBURG*    PTCLDY    44  39  82 CALM      30.23R

$$

VAZ036>039-050-210300-
CENTRAL FOOTHILLS

CITY           SKY/WX    TMP DP  RH WIND       PRES   REMARKS
CHARLOTTESVILL PTCLDY    54  36  50 N6        30.23R
CULPEPER*      CLOUDY    44  36  71 CALM      30.26R
ORANGE*        CLOUDY    43  36  75 CALM      30.26R
GORDONSVILLE*  PTCLDY    45  38  76 CALM      30.23R
WARRENTON*     CLEAR     52  31  44 E7        30.25R

$$

VAZ055>057-210300-
NORTH AND CENTRAL PIEDMONT

CITY           SKY/WX    TMP DP  RH WIND       PRES   REMARKS
FREDERICKSBRG* CLOUDY    53  35  51 E5        30.25R
STAFFORD*      CLEAR     51  32  48 E3        30.30R

$$

NCZ024-NYZ072-PAZ021-071-VAZ022-071-210300-
OTHER REGIONAL OBSERVATIONS

CITY           SKY/WX    TMP DP  RH WIND       PRES   REMARKS
NEW YORK CITY  CLEAR     43  12  28 NE12G20   30.35R
PHILADELPHIA   CLEAR     48  18  30 NE12G20   30.30R
PITTSBURGH     CLOUDY    50  34  54 CALM      30.20S
ROANOKE        PTCLDY    60  31  33 CALM      30.22S
RICHMOND       PTCLDY    51  37  58 E6        30.24R
RALEIGH        MOCLDY    56  37  49 CALM      30.20S

$$

ANZ530>537-210300-
MARINE OBSERVATIONS

STATION/POSITION TIME  TEMP    WIND        PRES
                       AIR SEA DIR/SP/G
                 (UTC) (F)     (DEG/KT/KT) (MB)
THOMAS PT LIGHT  0200   50 43   40/ 11/ 11   N/A
BALT KEY BRIDGE  0148   53      30/  5/  5 1025.4R
COVE POINT       0148   52      90/  3/  3 1025.4R
LEWISETTA        0148   49 47  150/  3/  4 1024.6R
SOLOMONS ISLAND  0148          350/  2/  2   N/A
PINEY POINT      0142          130/  2/  2   N/A

$$





USA.gov is the U.S. government's official web portal to all federal, state and local government web resources and services.